�N����,����,�~����,�C��,���x,�C��,����,���ϕ���,�ő�u�ԕ���,�ő厞����,���˗�,�I�_���x,�n�����x,�ő啗���N��,DTYPE
"18/11/12","00:10",0.0,12.7,83.1,1014.0,322.6,2.8,5.5,329.1,0.00,9.9,15.3,"00:02:56",1
"18/11/12","00:20",0.0,12.5,83.4,1013.8,325.0,2.6,4.4,334.0,0.00,9.8,15.2,"00:13:24",1
"18/11/12","00:30",0.0,12.5,84.1,1014.2,331.0,2.6,4.7,324.3,0.00,9.9,15.1,"00:21:08",1
"18/11/12","00:40",0.0,12.4,84.4,1013.8,330.6,2.8,4.4,338.1,0.00,9.9,15.2,"00:38:22",1
"18/11/12","00:50",0.0,12.3,85.0,1014.2,324.8,2.2,4.1,342.7,0.00,9.9,15.1,"00:46:28",1
"18/11/12","01:00",0.0,12.3,85.3,1013.8,331.1,2.3,3.6,345.5,0.00,9.9,15.3,"00:52:56",1
"18/11/12","01:10",0.0,12.4,85.6,1013.8,329.7,2.6,3.9,337.6,0.00,10.1,15.1,"01:03:24",1
"18/11/12","01:20",0.0,12.4,85.4,1013.8,323.7,1.7,3.2,335.5,0.00,10.1,15.2,"01:10:16",1
"18/11/12","01:30",0.0,12.3,85.8,1013.8,305.7,1.6,3.3,334.1,0.00,10.0,15.1,"01:29:36",1
"18/11/12","01:40",0.0,12.3,85.8,1013.8,325.1,2.8,4.5,339.0,0.00,10.0,15.2,"01:39:44",1
"18/11/12","01:50",0.0,12.4,86.0,1013.8,325.2,2.6,3.5,343.5,0.00,10.2,15.1,"01:42:22",1
"18/11/12","02:00",0.0,12.3,85.9,1013.5,325.2,1.5,3.1,327.8,0.00,10.1,15.1,"01:54:00",1
"18/11/12","02:10",0.0,12.1,86.3,1013.5,326.6,1.7,2.5,315.0,0.00,9.9,14.9,"02:09:28",1
"18/11/12","02:20",0.0,11.9,86.9,1013.3,294.5,1.2,2.0,319.4,0.00,9.8,15.0,"02:19:38",1
"18/11/12","02:30",0.0,11.9,87.5,1013.5,320.7,1.0,2.1,332.0,0.00,9.9,15.0,"02:21:34",1
"18/11/12","02:40",0.0,11.8,87.8,1013.5,279.8,1.2,1.7,306.6,0.00,9.9,15.0,"02:36:18",1
"18/11/12","02:50",0.0,11.7,88.4,1013.5,302.3,1.6,2.2,316.5,0.00,9.9,14.9,"02:41:46",1
"18/11/12","03:00",0.0,11.8,89.0,1012.8,304.9,1.7,2.4,319.6,0.00,10.1,14.9,"02:57:12",1
"18/11/12","03:10",0.0,11.8,89.0,1013.0,326.8,1.8,2.6,334.4,0.00,10.1,14.9,"03:05:58",1
"18/11/12","03:20",0.0,11.9,88.9,1013.0,318.0,1.8,2.5,313.4,0.00,10.2,14.9,"03:10:26",1
"18/11/12","03:30",0.0,11.8,88.9,1012.8,282.7,1.1,2.0,314.8,0.00,10.1,14.8,"03:20:16",1
"18/11/12","03:40",0.0,11.7,89.5,1012.3,280.5,0.8,1.2,276.1,0.00,10.1,14.8,"03:34:44",1
"18/11/12","03:50",0.0,11.6,90.0,1012.3,297.3,1.2,1.6,320.1,0.00,10.1,14.8,"03:43:44",1
"18/11/12","04:00",0.0,11.6,90.3,1012.3,305.8,1.5,1.8,318.0,0.00,10.1,15.0,"03:52:18",1
"18/11/12","04:10",0.0,11.6,90.6,1011.9,332.0,1.5,2.0,351.9,0.00,10.2,15.0,"04:09:40",1
"18/11/12","04:20",0.0,11.5,91.0,1011.9,294.2,1.6,2.5,242.2,0.00,10.1,14.9,"04:19:24",1
"18/11/12","04:30",0.0,11.5,91.1,1012.1,310.5,1.6,1.9,323.3,0.00,10.1,14.7,"04:22:16",1
"18/11/12","04:40",0.0,11.5,91.2,1011.9,325.7,1.8,2.4,325.9,0.00,10.2,14.6,"04:32:40",1
"18/11/12","04:50",0.0,11.4,91.4,1011.9,274.8,1.5,2.0,249.6,0.00,10.1,14.7,"04:46:54",1
"18/11/12","05:00",0.0,11.3,91.5,1011.9,295.2,1.2,2.1,320.4,0.00,10.0,14.7,"04:52:38",1
"18/11/12","05:10",0.0,11.1,91.6,1011.6,314.4,2.0,2.9,333.9,0.00,9.8,14.7,"05:09:20",1
"18/11/12","05:20",0.0,11.1,91.4,1011.6,320.7,2.2,3.4,317.3,0.00,9.8,14.6,"05:11:30",1
"18/11/12","05:30",0.0,11.1,91.5,1011.6,313.8,2.5,4.0,335.2,0.00,9.8,14.7,"05:22:04",1
"18/11/12","05:40",0.0,11.1,91.5,1011.9,304.4,2.1,3.9,324.0,0.00,9.8,14.6,"05:35:56",1
"18/11/12","05:50",0.0,10.9,91.9,1011.9,309.5,1.6,2.6,308.8,0.00,9.7,14.7,"05:48:46",1
"18/11/12","06:00",0.0,10.7,91.3,1011.9,327.7,1.5,2.1,328.4,0.00,9.4,14.6,"05:51:14",1
"18/11/12","06:10",0.0,10.5,92.7,1012.1,320.5,1.5,2.2,327.5,0.00,9.4,14.7,"06:04:16",1
"18/11/12","06:20",0.0,10.6,92.2,1012.1,307.6,1.8,3.1,336.9,0.00,9.4,14.5,"06:11:22",1
"18/11/12","06:30",0.0,10.5,92.8,1011.6,321.0,1.6,3.3,334.9,0.00,9.4,14.4,"06:29:34",1
"18/11/12","06:40",0.0,10.4,92.6,1011.9,286.1,1.2,2.8,319.0,0.00,9.3,14.4,"06:30:40",1
"18/11/12","06:50",0.0,10.1,93.1,1011.6,304.1,1.2,1.8,337.9,0.00,9.1,14.4,"06:49:04",1
"18/11/12","07:00",0.0,9.9,92.9,1011.6,325.5,1.5,2.0,340.4,0.00,8.8,14.4,"06:50:56",1
"18/11/12","07:10",0.0,9.9,94.2,1011.4,279.8,1.2,1.9,269.0,0.00,9.1,14.1,"07:08:48",1
"18/11/12","07:20",0.0,10.3,94.1,1011.2,312.5,1.7,2.5,336.7,0.00,9.4,14.4,"07:17:44",1
"18/11/12","07:30",0.0,10.3,93.8,1011.6,336.3,1.3,2.1,324.3,0.00,9.4,14.2,"07:20:24",1
"18/11/12","07:40",0.0,10.3,94.2,1011.4,308.8,1.1,1.6,330.9,0.01,9.4,14.3,"07:30:32",1
"18/11/12","07:50",0.0,10.8,94.0,1011.6,322.9,1.5,4.3,310.9,0.02,9.9,14.2,"07:49:22",1
"18/11/12","08:00",0.0,11.0,93.8,1011.6,326.9,2.0,3.5,328.4,0.03,10.1,13.9,"07:50:08",1
"18/11/12","08:10",0.0,11.3,93.2,1011.9,318.8,2.0,3.3,322.4,0.03,10.3,14.1,"08:07:10",1
"18/11/12","08:20",0.0,11.8,92.4,1012.3,318.9,2.5,4.7,330.9,0.04,10.6,14.3,"08:17:02",1
"18/11/12","08:30",0.0,12.3,90.6,1012.3,322.1,2.7,6.0,343.1,0.08,10.8,14.1,"08:20:02",1
"18/11/12","08:40",0.0,12.8,87.7,1012.6,321.5,3.1,5.2,326.4,0.10,10.9,14.2,"08:30:08",1
"18/11/12","08:50",0.0,13.4,85.8,1012.6,319.2,2.3,4.3,327.9,0.12,11.1,14.4,"08:49:04",1
"18/11/12","09:00",0.0,14.4,82.4,1012.6,311.6,2.3,4.1,341.6,0.20,11.5,14.4,"08:52:08",1
"18/11/12","09:10",0.0,14.5,80.9,1012.3,281.6,1.1,2.2,333.0,0.18,11.3,14.6,"09:00:56",1
"18/11/12","09:20",0.0,14.2,81.3,1012.8,302.2,1.3,1.9,340.7,0.09,11.1,14.7,"09:11:28",1
"18/11/12","09:30",0.0,14.8,81.1,1012.6,242.5,0.8,1.9,230.3,0.21,11.6,15.0,"09:29:20",1
"18/11/12","09:40",0.0,15.7,78.3,1012.6,261.9,1.0,2.1,232.4,0.26,12.0,14.9,"09:30:24",1
"18/11/12","09:50",0.0,15.9,77.7,1012.8,218.8,1.1,2.0,197.0,0.29,12.1,15.0,"09:41:04",1
"18/11/12","10:00",0.0,15.5,76.6,1011.9,188.2,0.8,1.6,231.0,0.24,11.5,15.2,"09:50:16",1
"18/11/12","10:10",0.0,15.9,75.7,1012.3,267.8,0.8,1.7,230.3,0.17,11.7,15.3,"10:03:28",1
"18/11/12","10:20",0.0,16.5,73.3,1011.6,274.0,0.3,1.4,238.6,0.26,11.8,15.6,"10:14:48",1
"18/11/12","10:30",0.0,16.6,72.6,1012.1,270.7,0.3,1.0,243.9,0.17,11.7,15.7,"10:22:00",1
"18/11/12","10:40",0.0,16.4,72.6,1011.4,257.9,0.8,1.9,237.7,0.16,11.5,15.8,"10:34:16",1
"18/11/12","10:50",0.0,16.7,72.3,1011.4,258.5,0.8,1.6,266.5,0.20,11.7,16.0,"10:47:36",1
"18/11/12","11:00",0.0,17.3,68.3,1011.2,220.3,1.0,2.1,225.4,0.45,11.5,16.3,"10:57:12",1
"18/11/12","11:10",0.0,17.5,67.1,1011.2,252.5,0.7,2.5,221.1,0.22,11.4,16.5,"11:02:08",1
"18/11/12","11:20",0.0,17.5,68.8,1010.9,255.7,0.6,1.2,231.9,0.17,11.8,16.4,"11:11:28",1
"18/11/12","11:30",0.0,17.6,68.2,1010.7,241.6,0.6,1.9,216.2,0.18,11.7,16.3,"11:29:44",1
"18/11/12","11:40",0.0,17.7,68.1,1010.7,228.4,0.8,2.2,226.5,0.18,11.8,16.8,"11:36:16",1
"18/11/12","11:50",0.0,17.5,67.9,1010.0,241.3,1.5,2.8,225.4,0.22,11.6,16.7,"11:48:56",1
"18/11/12","12:00",0.0,17.8,67.4,1010.0,224.1,1.2,2.4,228.1,0.25,11.7,17.0,"11:52:40",1
"18/11/12","12:10",0.0,18.2,66.7,1009.3,234.7,0.8,2.5,211.6,0.26,11.9,17.1,"12:01:52",1
"18/11/12","12:20",0.0,17.8,67.5,1009.5,216.2,1.1,2.6,229.4,0.17,11.7,17.2,"12:12:16",1
"18/11/12","12:30",0.0,17.9,68.5,1009.3,168.0,0.8,1.7,199.3,0.15,12.1,17.3,"12:22:16",1
"18/11/12","12:40",0.0,18.0,66.2,1009.0,247.6,0.6,1.2,246.9,0.14,11.6,17.2,"12:39:28",1
"18/11/12","12:50",0.0,18.2,65.4,1009.3,284.2,1.0,2.0,345.1,0.13,11.7,17.4,"12:48:16",1
"18/11/12","13:00",0.0,18.5,63.5,1009.3,298.0,1.0,1.9,334.3,0.08,11.5,17.5,"12:59:44",1
"18/11/12","13:10",0.0,18.0,64.6,1009.3,324.2,2.1,3.7,336.1,0.08,11.3,17.3,"13:05:20",1
"18/11/12","13:20",0.0,17.8,67.8,1009.3,331.4,2.1,3.5,329.5,0.13,11.8,17.5,"13:11:12",1
"18/11/12","13:30",0.0,18.0,67.1,1008.8,335.7,1.7,2.5,340.4,0.11,11.8,17.5,"13:23:20",1
"18/11/12","13:40",0.0,17.8,66.8,1008.3,320.5,1.7,3.9,339.6,0.06,11.6,17.3,"13:33:44",1
"18/11/12","13:50",0.0,17.4,67.4,1009.0,292.5,1.1,2.4,315.4,0.02,11.3,17.3,"13:42:56",1
"18/11/12","14:00",0.0,17.3,67.7,1009.3,313.4,1.5,3.7,340.3,0.03,11.3,17.2,"13:56:56",1
"18/11/12","14:10",0.0,17.1,67.7,1009.3,332.8,2.2,3.9,333.7,0.07,11.1,17.2,"14:07:20",1
"18/11/12","14:20",0.0,16.9,70.0,1009.0,330.3,2.2,3.2,335.6,0.08,11.4,17.3,"14:19:28",1
"18/11/12","14:30",0.0,16.9,70.7,1009.5,292.4,1.0,2.7,331.2,0.05,11.6,17.2,"14:20:08",1
"18/11/12","14:40",0.0,16.9,70.8,1009.3,315.2,1.2,2.1,325.4,0.05,11.6,17.3,"14:36:40",1
"18/11/12","14:50",0.0,16.9,70.2,1009.7,331.1,2.5,3.6,339.0,0.04,11.5,17.1,"14:48:24",1
"18/11/12","15:00",0.0,16.8,71.0,1009.3,334.1,2.2,3.5,320.0,0.02,11.6,17.1,"14:55:20",1
"18/11/12","15:10",0.0,16.7,72.2,1009.5,328.4,2.2,3.6,342.2,0.03,11.7,17.2,"15:08:16",1
"18/11/12","15:20",0.0,16.7,73.4,1009.5,325.9,1.8,4.0,331.8,0.03,12.0,17.1,"15:10:16",1
"18/11/12","15:30",0.0,16.6,74.6,1009.7,330.6,1.6,2.8,337.7,0.02,12.1,17.0,"15:25:20",1
"18/11/12","15:40",0.0,16.6,75.2,1009.5,337.7,1.8,4.0,329.2,0.01,12.2,17.0,"15:35:04",1
"18/11/12","15:50",0.0,16.4,75.3,1009.5,332.0,2.0,2.9,318.7,0.01,12.1,17.0,"15:49:04",1
"18/11/12","16:00",0.0,16.5,75.3,1009.5,325.0,1.7,3.1,321.5,0.00,12.2,16.9,"15:50:08",1
"18/11/12","16:10",0.0,16.3,76.3,1009.7,326.8,1.6,2.6,340.8,0.00,12.2,16.8,"16:09:52",1
"18/11/12","16:20",0.0,16.0,77.0,1009.5,329.9,1.6,2.7,323.3,0.00,12.0,16.7,"16:17:04",1
"18/11/12","16:30",0.0,15.9,75.4,1009.5,342.5,1.5,3.4,345.4,0.00,11.6,16.8,"16:28:48",1
"18/11/12","16:40",0.0,15.9,74.3,1009.5,325.7,1.5,2.9,341.3,0.00,11.4,16.7,"16:30:48",1
"18/11/12","16:50",0.0,15.8,75.7,1009.5,335.0,1.2,2.0,336.6,0.00,11.6,16.6,"16:49:36",1
"18/11/12","17:00",0.0,15.4,77.6,1009.5,315.8,1.3,2.2,343.1,0.00,11.5,16.7,"16:51:52",1
"18/11/12","17:10",0.0,15.3,78.2,1009.7,322.8,1.1,1.7,339.5,0.00,11.6,16.5,"17:05:26",1
"18/11/12","17:20",0.0,15.1,79.2,1009.5,320.8,1.2,2.2,323.9,0.00,11.6,16.5,"17:14:24",1
"18/11/12","17:30",0.0,15.0,79.2,1009.7,324.5,1.2,2.0,331.1,0.00,11.5,16.5,"17:29:28",1
"18/11/12","17:40",0.0,14.9,80.3,1009.7,319.5,1.2,1.8,331.4,0.00,11.6,16.6,"17:33:04",1
"18/11/12","17:50",0.0,14.8,80.8,1009.7,315.2,1.0,1.9,311.4,0.00,11.6,16.6,"17:40:56",1
"18/11/12","18:00",0.0,14.8,81.1,1010.2,335.7,1.1,2.4,324.9,0.00,11.6,16.4,"17:58:56",1
"18/11/12","18:10",0.0,14.7,80.9,1010.0,327.2,1.1,1.7,332.4,0.00,11.5,16.4,"18:00:16",1
"18/11/12","18:20",0.0,14.8,80.9,1010.0,327.4,1.3,2.6,336.3,0.00,11.6,16.4,"18:19:20",1
"18/11/12","18:30",0.0,14.7,80.5,1009.5,339.0,0.8,1.9,325.8,0.00,11.4,16.3,"18:21:12",1
"18/11/12","18:40",0.0,14.5,81.4,1009.5,325.2,1.3,1.8,334.0,0.00,11.4,16.2,"18:39:52",1
"18/11/12","18:50",0.0,14.3,82.8,1009.7,305.2,1.1,1.9,325.2,0.00,11.5,16.2,"18:49:36",1
"18/11/12","19:00",0.0,14.4,83.3,1009.5,332.0,1.5,2.1,333.2,0.00,11.6,16.3,"18:55:44",1
"18/11/12","19:10",0.0,14.4,83.9,1009.7,324.2,1.5,2.2,317.7,0.00,11.8,16.1,"19:07:20",1
"18/11/12","19:20",0.0,14.3,83.9,1009.5,331.1,1.3,3.2,343.1,0.00,11.7,16.1,"19:11:20",1
"18/11/12","19:30",0.0,14.2,84.1,1009.3,313.0,1.3,2.1,341.6,0.00,11.6,16.0,"19:20:08",1
"18/11/12","19:40",0.0,14.1,84.6,1010.0,306.5,1.2,1.6,324.2,0.00,11.6,16.3,"19:35:44",1
"18/11/12","19:50",0.0,14.2,84.8,1009.7,299.9,1.6,3.4,329.8,0.00,11.7,16.1,"19:48:00",1
"18/11/12","20:00",0.0,14.2,84.6,1009.5,331.0,2.0,3.9,335.7,0.00,11.7,16.0,"19:59:20",1
"18/11/12","20:10",0.0,14.4,84.1,1009.7,326.5,2.5,3.6,329.6,0.00,11.8,15.9,"20:04:48",1
"18/11/12","20:20",0.0,14.3,84.4,1010.0,319.7,2.1,3.9,322.2,0.00,11.7,16.0,"20:12:08",1
"18/11/12","20:30",0.0,14.3,84.7,1010.0,316.2,2.1,3.4,320.0,0.00,11.8,15.7,"20:25:20",1
"18/11/12","20:40",0.0,14.3,84.4,1009.5,330.1,2.5,3.3,331.2,0.00,11.7,15.9,"20:30:08",1
"18/11/12","20:50",0.0,14.3,83.9,1009.7,324.7,2.7,4.4,341.7,0.00,11.7,15.9,"20:46:08",1
"18/11/12","21:00",0.0,14.1,83.8,1010.0,329.8,2.6,3.4,332.9,0.00,11.4,15.7,"20:50:08",1
"18/11/12","21:10",0.0,14.1,84.0,1010.2,322.8,2.5,4.1,326.2,0.00,11.5,15.6,"21:08:56",1
"18/11/12","21:20",0.0,14.1,83.9,1009.5,333.3,2.6,4.9,331.9,0.00,11.5,15.8,"21:15:20",1
"18/11/12","21:30",0.0,14.1,83.4,1009.7,328.1,2.1,2.9,332.9,0.00,11.4,15.7,"21:21:12",1
"18/11/12","21:40",0.0,14.0,83.9,1010.0,312.2,1.6,2.6,333.4,0.00,11.4,15.7,"21:31:36",1
"18/11/12","21:50",0.0,13.8,84.7,1009.5,302.6,1.3,1.9,328.1,0.00,11.3,15.5,"21:45:20",1
"18/11/12","22:00",0.0,13.7,85.3,1009.7,317.0,1.3,2.0,334.3,0.00,11.3,15.7,"21:53:04",1
"18/11/12","22:10",0.0,13.5,85.9,1009.7,312.2,1.3,2.0,316.6,0.00,11.2,15.7,"22:02:08",1
"18/11/12","22:20",0.0,13.4,86.5,1009.7,336.6,1.1,1.9,329.2,0.00,11.2,15.6,"22:19:36",1
"18/11/12","22:30",0.0,13.4,87.1,1009.7,333.4,1.6,2.1,342.7,0.00,11.3,15.6,"22:24:24",1
"18/11/12","22:40",0.0,13.6,87.2,1009.7,316.8,2.0,3.1,324.4,0.00,11.6,15.7,"22:36:16",1
"18/11/12","22:50",0.0,13.9,86.7,1010.0,322.4,2.2,3.1,344.9,0.00,11.8,15.3,"22:47:04",1
"18/11/12","23:00",0.0,13.9,86.3,1009.5,327.4,2.1,3.7,340.5,0.00,11.7,15.6,"22:54:40",1
"18/11/12","23:10",0.0,13.7,86.5,1009.5,324.0,1.6,2.4,328.3,0.00,11.5,15.7,"23:00:08",1
"18/11/12","23:20",0.0,13.6,86.9,1009.5,305.2,1.3,2.2,318.8,0.00,11.5,15.6,"23:13:44",1
"18/11/12","23:30",0.0,13.6,87.3,1009.3,313.3,1.6,2.2,331.4,0.00,11.6,15.5,"23:20:56",1
"18/11/12","23:40",0.0,13.5,87.4,1008.8,294.3,1.1,1.8,321.9,0.00,11.5,15.6,"23:31:20",1
"18/11/12","23:50",0.0,13.4,88.1,1009.5,305.8,1.5,2.7,338.2,0.00,11.5,15.4,"23:49:28",1
"18/11/12","24:00",0.0,13.6,88.1,1009.3,324.7,2.2,3.7,333.6,0.00,11.7,15.4,"23:59:20",1
